| time (UTC) | temp C | wind direction | speed KPH | gust KPH | rain 1hr cm | rain 24hr cm | rain mn cm | humidity % | barometer mb |
| 20260504001532 | 13 | 148 | 4.8 | 8.0 | 0.00 | 0.00 | 0.00 | 40 | 1013.2 |
| 20260504001028 | 13 | 167 | 4.8 | 4.8 | 0.00 | 0.00 | 0.00 | 40 | 1013.3 |
| 20260504000525 | 13 | 97 | 0.0 | 0.0 | 0.00 | 0.00 | 0.00 | 41 | 1013.3 |
| 20260504000023 | 13 | 165 | 0.0 | 0.0 | 0.00 | 0.00 | 0.00 | 40 | 1013.3 |
| 20260503235521 | 13 | 51 | 1.6 | 1.6 | 0.00 | 0.00 | 0.00 | 40 | 1013.4 |
| 20260503235017 | 13 | 313 | 3.2 | 3.2 | 0.00 | 0.00 | 0.00 | 39 | 1013.4 |
| 20260503234515 | 13 | 239 | 8.0 | 9.7 | 0.00 | 0.00 | 0.00 | 38 | 1013.5 |
| 20260503234014 | 14 | 218 | 4.8 | 9.7 | 0.00 | 0.00 | 0.00 | 38 | 1013.2 |
| 20260503233509 | 14 | 241 | 3.2 | 3.2 | 0.00 | 0.00 | 0.00 | 37 | 1013.3 |
| 20260503233005 | 14 | 267 | 1.6 | 3.2 | 0.00 | 0.00 | 0.00 | 39 | 1013.6 |
| 20260503232502 | 14 | 223 | 6.4 | 9.7 | 0.00 | 0.00 | 0.00 | 37 | 1013.7 |
| 20260503232001 | 14 | 218 | 4.8 | 4.8 | 0.00 | 0.00 | 0.00 | 37 | 1013.3 |
| 20260503231458 | 14 | 300 | 4.8 | 4.8 | 0.00 | 0.00 | 0.00 | 38 | 1013.5 |
| 20260503230954 | 14 | 262 | 3.2 | 4.8 | 0.00 | 0.00 | 0.00 | 38 | 1013.5 |
| 20260503230451 | 14 | 259 | 3.2 | 3.2 | 0.00 | 0.00 | 0.00 | 38 | 1013.6 |
| 20260503225948 | 14 | 252 | 4.8 | 8.0 | 0.00 | 0.00 | 0.00 | 39 | 1013.4 |
| 20260503225445 | 14 | 205 | 1.6 | 3.2 | 0.00 | 0.00 | 0.00 | 39 | 1013.6 |
| 20260503224941 | 15 | 270 | 6.4 | 8.0 | 0.00 | 0.00 | 0.00 | 37 | 1013.6 |
| 20260503224438 | 15 | 268 | 8.0 | 9.7 | 0.00 | 0.00 | 0.00 | 37 | 1013.6 |
| 20260503223936 | 14 | 6 | 3.2 | 3.2 | 0.00 | 0.00 | 0.00 | 38 | 1013.8 |
| 20260503223433 | 15 | 321 | 4.8 | 8.0 | 0.00 | 0.00 | 0.00 | 41 | 1013.8 |
| 20260503222928 | 15 | 288 | 1.6 | 1.6 | 0.00 | 0.00 | 0.00 | 39 | 1013.8 |
| 20260503222427 | 15 | 289 | 4.8 | 3.2 | 0.00 | 0.00 | 0.00 | 38 | 1013.8 |
| 20260503221925 | 15 | 65 | 1.6 | 1.6 | 0.00 | 0.00 | 0.00 | 40 | 1013.8 |
| 20260503221423 | 16 | 244 | 1.6 | 3.2 | 0.00 | 0.00 | 0.00 | 37 | 1014.0 |
| 20260503220920 | 16 | 111 | 3.2 | 3.2 | 0.00 | 0.00 | 0.00 | 37 | 1013.8 |
| 20260503220416 | 16 | 200 | 4.8 | 4.8 | 0.00 | 0.00 | 0.00 | 37 | 1013.8 |
| 20260503215913 | 16 | 237 | 6.4 | 12.9 | 0.00 | 0.00 | 0.00 | 34 | 1013.6 |
| 20260503215410 | 15 | 182 | 1.6 | 1.6 | 0.00 | 0.00 | 0.00 | 40 | 1013.6 |
| 20260503214908 | 15 | 348 | 3.2 | 3.2 | 0.00 | 0.00 | 0.00 | 38 | 1013.9 |
| 20260503214405 | 15 | 199 | 6.4 | 11.3 | 0.00 | 0.00 | 0.00 | 36 | 1014.0 |
| 20260503213902 | 15 | 207 | 1.6 | 1.6 | 0.00 | 0.00 | 0.00 | 38 | 1013.7 |
| 20260503213400 | 15 | 340 | 3.2 | 3.2 | 0.00 | 0.00 | 0.00 | 38 | 1013.7 |
| 20260503212856 | 15 | 150 | 3.2 | 4.8 | 0.00 | 0.00 | 0.00 | 38 | 1013.9 |
| 20260503212355 | 16 | 230 | 4.8 | 4.8 | 0.00 | 0.00 | 0.00 | 38 | 1013.8 |
| 20260503211851 | 16 | 40 | 4.8 | 4.8 | 0.00 | 0.00 | 0.00 | 36 | 1013.9 |
| 20260503211348 | 15 | 197 | 1.6 | 1.6 | 0.00 | 0.00 | 0.00 | 35 | 1013.7 |
| 20260503210843 | 15 | 342 | 3.2 | 4.8 | 0.00 | 0.00 | 0.00 | 39 | 1013.8 |
| 20260503210341 | 15 | 235 | 8.0 | 11.3 | 0.00 | 0.00 | 0.00 | 37 | 1013.8 |
| 20260503205835 | 15 | 178 | 1.6 | 1.6 | 0.00 | 0.00 | 0.00 | 39 | 1013.6 |
| 20260503205332 | 15 | 337 | 4.8 | 8.0 | 0.00 | 0.00 | 0.00 | 37 | 1013.7 |
| 20260503204829 | 15 | 155 | 8.0 | 12.9 | 0.00 | 0.00 | 0.00 | 36 | 1013.9 |
| 20260503204327 | 16 | 254 | 4.8 | 4.8 | 0.00 | 0.00 | 0.00 | 35 | 1014.1 |
| 20260503203824 | 16 | 165 | 8.0 | 11.3 | 0.00 | 0.00 | 0.00 | 33 | 1013.9 |
| 20260503203321 | 15 | 184 | 3.2 | 3.2 | 0.00 | 0.00 | 0.00 | 35 | 1013.8 |
| 20260503202818 | 16 | 242 | 6.4 | 9.7 | 0.00 | 0.00 | 0.00 | 33 | 1014.1 |
| 20260503202316 | 16 | 31 | 4.8 | 4.8 | 0.00 | 0.00 | 0.00 | 33 | 1013.7 |
| 20260503201814 | 16 | 261 | 6.4 | 8.0 | 0.00 | 0.00 | 0.00 | 36 | 1014.1 |
| 20260503201310 | 15 | 254 | 1.6 | 3.2 | 0.00 | 0.00 | 0.00 | 39 | 1014.2 |
| 20260503200808 | 16 | 177 | 8.0 | 16.1 | 0.00 | 0.00 | 0.00 | 36 | 1013.9 |
| 20260503200303 | 15 | 185 | 12.9 | 20.9 | 0.00 | 0.00 | 0.00 | 35 | 1014.1 |
| 20260503195801 | 16 | 293 | 4.8 | 4.8 | 0.00 | 0.00 | 0.00 | 35 | 1014.1 |
| 20260503195257 | 16 | 216 | 1.6 | 3.2 | 0.00 | 0.00 | 0.00 | 36 | 1014.6 |
| 20260503194755 | 16 | 24 | 1.6 | 1.6 | 0.00 | 0.00 | 0.00 | 38 | 1014.2 |
| 20260503194250 | 15 | 300 | 8.0 | 9.7 | 0.00 | 0.00 | 0.00 | 38 | 1014.5 |
| 20260503193747 | 15 | 288 | 6.4 | 9.7 | 0.00 | 0.00 | 0.00 | 36 | 1014.7 |
| 20260503193243 | 16 | 340 | 8.0 | 16.1 | 0.00 | 0.00 | 0.00 | 37 | 1015.1 |
| 20260503192739 | 16 | 310 | 4.8 | 4.8 | 0.00 | 0.00 | 0.00 | 38 | 1015.1 |
| 20260503192234 | 15 | 258 | 4.8 | 8.0 | 0.00 | 0.00 | 0.00 | 39 | 1014.8 |
| 20260503191731 | 16 | 327 | 14.5 | 20.9 | 0.00 | 0.00 | 0.00 | 34 | 1015.0 |
| 20260503191228 | 16 | 236 | 9.7 | 11.3 | 0.00 | 0.00 | 0.00 | 36 | 1015.0 |
| 20260503190725 | 16 | 236 | 6.4 | 9.7 | 0.00 | 0.00 | 0.00 | 38 | 1015.1 |
| 20260503190222 | 16 | 252 | 11.3 | 14.5 | 0.00 | 0.00 | 0.00 | 35 | 1015.2 |
| 20260503185719 | 16 | 221 | 3.2 | 3.2 | 0.00 | 0.00 | 0.00 | 36 | 1015.2 |
| 20260503185214 | 16 | 269 | 1.6 | 1.6 | 0.00 | 0.00 | 0.00 | 36 | 1015.3 |
| 20260503184709 | 16 | 11 | 9.7 | 12.9 | 0.00 | 0.00 | 0.00 | 34 | 1015.4 |
| 20260503184206 | 16 | 303 | 12.9 | 16.1 | 0.00 | 0.00 | 0.00 | 37 | 1015.2 |
| 20260503183702 | 16 | 175 | 4.8 | 8.0 | 0.00 | 0.00 | 0.00 | 36 | 1015.4 |
| 20260503183200 | 16 | 278 | 4.8 | 4.8 | 0.00 | 0.00 | 0.00 | 36 | 1015.6 |
| 20260503182658 | 15 | 180 | 1.6 | 1.6 | 0.00 | 0.00 | 0.00 | 37 | 1015.5 |
| 20260503182156 | 15 | 238 | 11.3 | 22.5 | 0.00 | 0.00 | 0.00 | 36 | 1015.5 |
| 20260503181652 | 15 | 346 | 6.4 | 8.0 | 0.00 | 0.00 | 0.00 | 36 | 1015.7 |
| 20260503181149 | 15 | 282 | 6.4 | 8.0 | 0.00 | 0.00 | 0.00 | 36 | 1015.6 |
| 20260503180646 | 15 | 351 | 17.7 | 22.5 | 0.00 | 0.00 | 0.00 | 35 | 1015.4 |
| 20260503180144 | 15 | 319 | 12.9 | 12.9 | 0.00 | 0.00 | 0.00 | 37 | 1015.8 |
| 20260503175641 | 15 | 220 | 4.8 | 8.0 | 0.00 | 0.00 | 0.00 | 36 | 1015.8 |
| 20260503175138 | 15 | 334 | 8.0 | 12.9 | 0.00 | 0.00 | 0.00 | 41 | 1015.7 |
| 20260503174634 | 15 | 324 | 4.8 | 4.8 | 0.00 | 0.00 | 0.00 | 40 | 1016.0 |
| 20260503174132 | 14 | 326 | 9.7 | 11.3 | 0.00 | 0.00 | 0.00 | 40 | 1016.0 |
| 20260503173626 | 14 | 8 | 9.7 | 12.9 | 0.00 | 0.00 | 0.00 | 41 | 1016.0 |
| 20260503173123 | 15 | 302 | 17.7 | 20.9 | 0.00 | 0.00 | 0.00 | 38 | 1016.1 |
| 20260503172620 | 15 | 293 | 4.8 | 8.0 | 0.00 | 0.00 | 0.00 | 40 | 1016.2 |
| 20260503172118 | 15 | 185 | 4.8 | 8.0 | 0.00 | 0.00 | 0.00 | 43 | 1016.0 |
| 20260503171614 | 15 | 343 | 4.8 | 9.7 | 0.00 | 0.00 | 0.00 | 42 | 1016.5 |
| 20260503171112 | 15 | 268 | 3.2 | 3.2 | 0.00 | 0.00 | 0.00 | 46 | 1016.6 |
| 20260503170609 | 15 | 343 | 8.0 | 9.7 | 0.00 | 0.00 | 0.00 | 39 | 1016.5 |
| 20260503170105 | 15 | 316 | 1.6 | 3.2 | 0.00 | 0.00 | 0.00 | 46 | 1016.2 |
| 20260503151000 | 12 | 210 | 8.0 | 11.3 | 0.00 | 0.00 | 0.00 | 39 | 1017.5 |
| 20260503150456 | 12 | 179 | 8.0 | 9.7 | 0.00 | 0.00 | 0.00 | 41 | 1017.3 |
| 20260503131350 | 8 | 352 | 3.2 | 1.6 | 0.00 | 0.00 | 0.00 | 47 | 1018.1 |
| 20260503130847 | 9 | 175 | 1.6 | 3.2 | 0.00 | 0.00 | 0.00 | 46 | 1018.2 |
| 20260503130344 | 9 | 189 | 1.6 | 1.6 | 0.00 | 0.00 | 0.00 | 47 | 1018.1 |
| 20260503110738 | 2 | 309 | 1.6 | 1.6 | 0.00 | 0.00 | 0.00 | 70 | 1017.4 |
| 20260503110235 | 2 | 242 | 0.0 | 0.0 | 0.00 | 0.00 | 0.00 | 71 | 1017.7 |
| 20260503100156 | 2 | 286 | 1.6 | 1.6 | 0.00 | 0.00 | 0.00 | 76 | 1017.2 |
| 20260503090115 | 2 | 85 | 0.0 | 0.0 | 0.00 | 0.00 | 0.00 | 77 | 1017.5 |
| 20260503081545 | 2 | 213 | 0.0 | 0.0 | 0.00 | 0.00 | 0.00 | 79 | 1017.5 |
| 20260503081042 | 2 | 197 | 0.0 | 0.0 | 0.00 | 0.00 | 0.00 | 78 | 1017.5 |
| 20260503080538 | 2 | 237 | 0.0 | 0.0 | 0.00 | 0.00 | 0.00 | 78 | 1017.6 |
| 20260503072512 | 2 | 251 | 0.0 | 0.0 | 0.00 | 0.00 | 0.00 | 79 | 1017.3 |
| 20260503072009 | 2 | 241 | 1.6 | 1.6 | 0.00 | 0.00 | 0.00 | 80 | 1017.4 |
| 20260503071506 | 2 | 331 | 0.0 | 0.0 | 0.00 | 0.00 | 0.00 | 80 | 1017.5 |
| 20260503071003 | 2 | 309 | 0.0 | 0.0 | 0.00 | 0.00 | 0.00 | 80 | 1017.4 |
| 20260503070459 | 2 | 252 | 0.0 | 0.0 | 0.00 | 0.00 | 0.00 | 80 | 1017.4 |
| 20260503054922 | 1 | 139 | 0.0 | 0.0 | 0.00 | 0.00 | 0.00 | 86 | 1017.6 |
| 20260503054418 | 1 | 152 | 0.0 | 0.0 | 0.00 | 0.00 | 0.00 | 87 | 1017.6 |
| 20260503053917 | 1 | 169 | 0.0 | 0.0 | 0.00 | 0.00 | 0.00 | 87 | 1017.5 |
| 20260503053414 | 1 | 162 | 0.0 | 0.0 | 0.00 | 0.00 | 0.00 | 87 | 1017.6 |
| 20260503052910 | 1 | 162 | 0.0 | 0.0 | 0.00 | 0.00 | 0.00 | 86 | 1017.8 |
| 20260503052408 | 1 | 162 | 0.0 | 0.0 | 0.00 | 0.00 | 0.00 | 86 | 1017.8 |
| 20260503051904 | 1 | 162 | 0.0 | 0.0 | 0.00 | 0.00 | 0.00 | 86 | 1017.8 |
| 20260503051400 | 1 | 162 | 0.0 | 0.0 | 0.00 | 0.00 | 0.00 | 85 | 1017.9 |
| 20260503050857 | 1 | 162 | 0.0 | 0.0 | 0.00 | 0.00 | 0.00 | 85 | 1017.7 |
| 20260503050353 | 2 | 162 | 0.0 | 0.0 | 0.00 | 0.00 | 0.00 | 84 | 1017.6 |
| 20260503045851 | 2 | 162 | 0.0 | 0.0 | 0.00 | 0.00 | 0.00 | 83 | 1017.8 |
| 20260503045348 | 2 | 162 | 0.0 | 0.0 | 0.00 | 0.00 | 0.00 | 82 | 1017.9 |
| 20260503044845 | 2 | 162 | 0.0 | 0.0 | 0.00 | 0.00 | 0.00 | 80 | 1017.9 |
| 20260503044342 | 2 | 161 | 0.0 | 0.0 | 0.00 | 0.00 | 0.00 | 79 | 1017.9 |
| 20260503043839 | 3 | 161 | 0.0 | 0.0 | 0.00 | 0.00 | 0.00 | 78 | 1017.8 |
| 20260503043336 | 3 | 161 | 0.0 | 0.0 | 0.00 | 0.00 | 0.00 | 77 | 1017.8 |
| 20260503042832 | 3 | 151 | 0.0 | 0.0 | 0.00 | 0.00 | 0.00 | 76 | 1017.7 |
| 20260503042329 | 3 | 191 | 0.0 | 0.0 | 0.00 | 0.00 | 0.00 | 76 | 1017.9 |
| 20260503041825 | 3 | 195 | 0.0 | 0.0 | 0.00 | 0.00 | 0.00 | 75 | 1017.9 |
| 20260503041322 | 4 | 245 | 0.0 | 0.0 | 0.00 | 0.00 | 0.00 | 75 | 1018.2 |
| 20260503040820 | 4 | 239 | 0.0 | 0.0 | 0.00 | 0.00 | 0.00 | 75 | 1018.0 |
| 20260503040317 | 4 | 193 | 0.0 | 0.0 | 0.00 | 0.00 | 0.00 | 76 | 1017.9 |
| 20260503035814 | 4 | 194 | 0.0 | 1.6 | 0.00 | 0.33 | 0.33 | 76 | 1018.0 |
| 20260503035311 | 3 | 168 | 1.6 | 1.6 | 0.00 | 0.33 | 0.33 | 76 | 1017.8 |
| 20260503034808 | 3 | 159 | 0.0 | 0.0 | 0.00 | 0.33 | 0.33 | 75 | 1018.1 |
| 20260503034305 | 3 | 140 | 0.0 | 0.0 | 0.00 | 0.33 | 0.33 | 76 | 1017.8 |
| 20260503033803 | 3 | 59 | 0.0 | 0.0 | 0.00 | 0.33 | 0.33 | 75 | 1018.0 |
| 20260503033300 | 3 | 166 | 0.0 | 0.0 | 0.00 | 0.33 | 0.33 | 75 | 1018.1 |
| 20260503032758 | 4 | 175 | 0.0 | 0.0 | 0.00 | 0.33 | 0.33 | 74 | 1018.1 |
| 20260503032257 | 3 | 186 | 0.0 | 0.0 | 0.00 | 0.33 | 0.33 | 74 | 1018.0 |
| 20260503031753 | 3 | 140 | 0.0 | 0.0 | 0.00 | 0.33 | 0.33 | 75 | 1018.3 |
| 20260503031251 | 3 | 141 | 0.0 | 0.0 | 0.00 | 0.33 | 0.33 | 75 | 1018.2 |
| 20260503030747 | 3 | 155 | 0.0 | 0.0 | 0.00 | 0.33 | 0.33 | 75 | 1018.1 |
| 20260503030244 | 3 | 69 | 0.0 | 0.0 | 0.00 | 0.33 | 0.33 | 76 | 1018.1 |
| 20260503025741 | 3 | 7 | 0.0 | 0.0 | 0.00 | 0.33 | 0.33 | 80 | 1018.2 |
| 20260503025238 | 3 | 7 | 0.0 | 0.0 | 0.00 | 0.33 | 0.33 | 81 | 1018.1 |
| 20260503024735 | 3 | 7 | 0.0 | 0.0 | 0.00 | 0.33 | 0.33 | 82 | 1018.3 |
| 20260503024232 | 3 | 7 | 0.0 | 0.0 | 0.00 | 0.33 | 0.33 | 84 | 1018.4 |
| 20260503023729 | 3 | 7 | 0.0 | 0.0 | 0.00 | 0.33 | 0.33 | 84 | 1018.4 |
| 20260503023226 | 3 | 7 | 0.0 | 0.0 | 0.00 | 0.33 | 0.33 | 83 | 1018.6 |
| 20260503022722 | 3 | 7 | 0.0 | 0.0 | 0.00 | 0.33 | 0.33 | 83 | 1018.4 |
| 20260503022222 | 3 | 7 | 0.0 | 0.0 | 0.00 | 0.33 | 0.33 | 83 | 1018.3 |
| 20260503021719 | 3 | 7 | 0.0 | 0.0 | 0.00 | 0.33 | 0.33 | 82 | 1018.3 |
| 20260503021215 | 3 | 7 | 0.0 | 0.0 | 0.00 | 0.33 | 0.33 | 81 | 1018.5 |
| 20260503020713 | 3 | 7 | 0.0 | 0.0 | 0.00 | 0.33 | 0.33 | 83 | 1018.4 |
| 20260503020211 | 3 | 7 | 0.0 | 0.0 | 0.00 | 0.33 | 0.33 | 84 | 1018.5 |
| 20260503015707 | 3 | 7 | 0.0 | 0.0 | 0.00 | 0.33 | 0.33 | 83 | 1018.5 |
| 20260503015204 | 3 | 7 | 0.0 | 0.0 | 0.00 | 0.33 | 0.33 | 82 | 1018.2 |
| 20260503014700 | 3 | 7 | 0.0 | 0.0 | 0.00 | 0.33 | 0.33 | 84 | 1018.4 |
| 20260503014158 | 3 | 7 | 0.0 | 0.0 | 0.00 | 0.33 | 0.33 | 85 | 1018.2 |
| 20260503013655 | 3 | 7 | 0.0 | 0.0 | 0.00 | 0.33 | 0.33 | 84 | 1018.4 |
| 20260503013153 | 3 | 7 | 0.0 | 0.0 | 0.00 | 0.33 | 0.33 | 84 | 1018.3 |
| 20260503012649 | 3 | 7 | 0.0 | 0.0 | 0.00 | 0.33 | 0.33 | 83 | 1018.4 |
| 20260503012147 | 3 | 7 | 0.0 | 0.0 | 0.00 | 0.33 | 0.33 | 83 | 1018.3 |
| 20260503011643 | 3 | 7 | 0.0 | 0.0 | 0.00 | 0.33 | 0.33 | 82 | 1018.1 |
| 20260503011140 | 3 | 7 | 0.0 | 0.0 | 0.00 | 0.33 | 0.33 | 81 | 1018.2 |
| 20260503010636 | 3 | 7 | 0.0 | 0.0 | 0.00 | 0.33 | 0.33 | 79 | 1018.1 |
| 20260503010134 | 3 | 7 | 0.0 | 0.0 | 0.00 | 0.33 | 0.33 | 78 | 1018.4 |
| 20260503005631 | 3 | 7 | 0.0 | 0.0 | 0.00 | 0.33 | 0.33 | 78 | 1018.6 |
| 20260503005128 | 3 | 7 | 0.0 | 0.0 | 0.00 | 0.33 | 0.33 | 78 | 1018.4 |
| 20260503004624 | 3 | 7 | 0.0 | 0.0 | 0.00 | 0.33 | 0.33 | 79 | 1018.3 |
| 20260503004123 | 4 | 7 | 0.0 | 0.0 | 0.00 | 0.33 | 0.33 | 78 | 1018.3 |
| 20260503003619 | 4 | 7 | 0.0 | 0.0 | 0.00 | 0.33 | 0.33 | 77 | 1018.1 |
| 20260503003116 | 4 | 7 | 0.0 | 0.0 | 0.00 | 0.33 | 0.33 | 75 | 1018.1 |
| 20260503002613 | 4 | 7 | 0.0 | 0.0 | 0.00 | 0.33 | 0.33 | 73 | 1018.2 |
| 20260503002110 | 5 | 7 | 0.0 | 0.0 | 0.00 | 0.33 | 0.33 | 72 | 1018.1 |